カタログに戻る

STARLINK-11390

運用中通信VLEO
NORAD 61947·PAYLOAD·🇺🇸 United States

打ち上げ Nov 14, 2024 から Vandenberg Space Force Base

Loading…

次のパス (今後24時間)

TLE

最新Source: CelesTrak SupGP

元期: Sep 14, 2026, 21:26 UTC

1 61947C 24209J   26257.89354167 -.00026969  00000+0 -22210-3 0  2579
2 61947  53.1566 158.6111 0001035  98.9438 265.0147 15.69729162    12

AllMySatでSTARLINK-11390をリアルタイム追跡

Download on the App Store